| time (UTC) | temp F | wind direction | speed knots | gust knots | rain 1hr in | rain 24hr in | rain mn in | humidity % | barometer mb |
| 20260507020608 | 64 | 355 | 7.8 | 13.9 | 0.00 | 0.00 | 0.00 | 79 | 1015.0 |
| 20260507020108 | 64 | 350 | 8.7 | 13.9 | 0.00 | 0.00 | 0.00 | 78 | 1015.1 |
| 20260507015608 | 64 | 349 | 9.6 | 14.8 | 0.00 | 0.00 | 0.00 | 76 | 1014.9 |
| 20260507015109 | 65 | 353 | 9.6 | 14.8 | 0.00 | 0.00 | 0.00 | 77 | 1014.8 |
| 20260507014606 | 65 | 4 | 11.3 | 13.9 | 0.00 | 0.00 | 0.00 | 75 | 1014.9 |
| 20260507014107 | 65 | 336 | 8.7 | 13.0 | 0.00 | 0.00 | 0.00 | 77 | 1014.8 |
| 20260507013609 | 65 | 354 | 9.6 | 11.3 | 0.00 | 0.00 | 0.00 | 76 | 1014.9 |
| 20260507013110 | 65 | 314 | 7.0 | 7.8 | 0.00 | 0.00 | 0.00 | 77 | 1014.9 |
| 20260507012608 | 65 | 253 | 2.6 | 10.4 | 0.00 | 0.00 | 0.00 | 77 | 1014.9 |
| 20260507012106 | 65 | 270 | 1.7 | 10.4 | 0.00 | 0.00 | 0.00 | 77 | 1014.9 |
| 20260507011608 | 66 | 8 | 3.5 | 7.8 | 0.00 | 0.00 | 0.00 | 76 | 1014.9 |
| 20260507011107 | 66 | 335 | 3.5 | 8.7 | 0.00 | 0.00 | 0.00 | 76 | 1014.9 |
| 20260507010829 | 66 | 251 | 1.7 | 10.4 | 0.00 | 0.00 | 0.00 | 76 | 1014.8 |
| 20260507010106 | 66 | 295 | 5.2 | 10.4 | 0.00 | 0.00 | 0.00 | 75 | 1014.8 |
| 20260507005825 | 66 | 319 | 5.2 | 8.7 | 0.00 | 0.00 | 0.00 | 74 | 1014.8 |
| 20260507005107 | 66 | 327 | 4.3 | 8.7 | 0.00 | 0.00 | 0.00 | 75 | 1014.8 |
| 20260507004606 | 66 | 268 | 5.2 | 8.7 | 0.00 | 0.00 | 0.00 | 74 | 1014.8 |
| 20260507004107 | 66 | 335 | 2.6 | 7.8 | 0.00 | 0.00 | 0.00 | 74 | 1014.8 |
| 20260507003607 | 66 | 278 | 2.6 | 10.4 | 0.00 | 0.00 | 0.00 | 72 | 1014.8 |
| 20260507003106 | 66 | 265 | 4.3 | 10.4 | 0.00 | 0.00 | 0.00 | 73 | 1014.7 |
| 20260507002606 | 66 | 269 | 3.5 | 8.7 | 0.00 | 0.00 | 0.00 | 74 | 1014.7 |
| 20260507002105 | 66 | 314 | 6.1 | 10.4 | 0.00 | 0.00 | 0.00 | 73 | 1014.7 |
| 20260507001826 | 66 | 260 | 3.5 | 10.4 | 0.00 | 0.00 | 0.00 | 73 | 1014.6 |
| 20260507001107 | 66 | 339 | 0.9 | 10.4 | 0.00 | 0.00 | 0.00 | 74 | 1014.7 |
| 20260507000830 | 66 | 249 | 5.2 | 10.4 | 0.00 | 0.00 | 0.00 | 73 | 1014.6 |
| 20260507000105 | 67 | 287 | 5.2 | 8.7 | 0.00 | 0.00 | 0.00 | 74 | 1014.6 |
| 20260506235605 | 66 | 293 | 4.3 | 12.2 | 0.00 | 0.00 | 0.00 | 72 | 1014.6 |
| 20260506235325 | 66 | 271 | 6.1 | 12.2 | 0.00 | 0.00 | 0.00 | 74 | 1014.6 |
| 20260506234605 | 66 | 310 | 4.3 | 10.4 | 0.00 | 0.00 | 0.00 | 73 | 1014.5 |
| 20260506234105 | 66 | 287 | 6.1 | 8.7 | 0.00 | 0.00 | 0.00 | 70 | 1014.6 |
| 20260506233604 | 66 | 249 | 3.5 | 8.7 | 0.00 | 0.00 | 0.00 | 72 | 1014.6 |
| 20260506233108 | 66 | 278 | 3.5 | 13.9 | 0.00 | 0.00 | 0.00 | 73 | 1014.6 |
| 20260506232605 | 66 | 303 | 4.3 | 13.9 | 0.00 | 0.00 | 0.00 | 73 | 1014.6 |
| 20260506232104 | 66 | 31 | 7.8 | 12.2 | 0.00 | 0.00 | 0.00 | 73 | 1014.6 |
| 20260506231604 | 66 | 256 | 0.9 | 10.4 | 0.00 | 0.00 | 0.00 | 72 | 1014.6 |
| 20260506231105 | 66 | 315 | 4.3 | 11.3 | 0.00 | 0.00 | 0.00 | 71 | 1014.7 |
| 20260506230605 | 66 | 248 | 2.6 | 11.3 | 0.00 | 0.00 | 0.00 | 72 | 1014.7 |
| 20260506230104 | 66 | 299 | 8.7 | 13.0 | 0.00 | 0.00 | 0.00 | 74 | 1014.7 |
| 20260506225826 | 66 | 333 | 7.0 | 13.0 | 0.00 | 0.00 | 0.00 | 73 | 1014.7 |
| 20260506225106 | 66 | 257 | 7.0 | 13.0 | 0.00 | 0.00 | 0.00 | 72 | 1014.9 |
| 20260506224605 | 66 | 348 | 4.3 | 13.0 | 0.00 | 0.00 | 0.00 | 73 | 1014.7 |
| 20260506224104 | 66 | 264 | 4.3 | 12.2 | 0.00 | 0.00 | 0.00 | 72 | 1014.9 |
| 20260506223605 | 66 | 278 | 4.3 | 12.2 | 0.00 | 0.00 | 0.00 | 72 | 1014.9 |
| 20260506223105 | 66 | 230 | 5.2 | 11.3 | 0.00 | 0.00 | 0.00 | 72 | 1014.9 |
| 20260506222606 | 66 | 293 | 8.7 | 12.2 | 0.00 | 0.00 | 0.00 | 72 | 1015.0 |
| 20260506222324 | 66 | 297 | 4.3 | 12.2 | 0.00 | 0.00 | 0.00 | 72 | 1015.0 |
| 20260506221602 | 66 | 270 | 5.2 | 11.3 | 0.00 | 0.00 | 0.00 | 71 | 1015.0 |
| 20260506221104 | 66 | 315 | 7.0 | 12.2 | 0.00 | 0.00 | 0.00 | 70 | 1015.1 |
| 20260506220603 | 66 | 293 | 6.1 | 12.2 | 0.00 | 0.00 | 0.00 | 70 | 1015.1 |
| 20260506220320 | 66 | 287 | 3.5 | 11.3 | 0.00 | 0.00 | 0.00 | 70 | 1015.1 |
| 20260506215603 | 66 | 348 | 5.2 | 11.3 | 0.00 | 0.00 | 0.00 | 69 | 1015.2 |
| 20260506215104 | 66 | 281 | 6.1 | 11.3 | 0.00 | 0.00 | 0.00 | 70 | 1015.3 |
| 20260506214605 | 66 | 335 | 8.7 | 11.3 | 0.00 | 0.00 | 0.00 | 68 | 1015.3 |
| 20260506214102 | 66 | 337 | 3.5 | 11.3 | 0.00 | 0.00 | 0.00 | 69 | 1015.4 |
| 20260506213602 | 66 | 14 | 4.3 | 11.3 | 0.00 | 0.00 | 0.00 | 67 | 1015.4 |
| 20260506213104 | 66 | 245 | 6.1 | 11.3 | 0.00 | 0.00 | 0.00 | 67 | 1015.4 |
| 20260506212603 | 66 | 340 | 7.0 | 11.3 | 0.00 | 0.00 | 0.00 | 68 | 1015.5 |
| 20260506212102 | 66 | 281 | 5.2 | 10.4 | 0.00 | 0.00 | 0.00 | 68 | 1015.4 |
| 20260506211826 | 66 | 272 | 2.6 | 10.4 | 0.00 | 0.00 | 0.00 | 69 | 1015.5 |
| 20260506211103 | 66 | 330 | 4.3 | 10.4 | 0.00 | 0.00 | 0.00 | 70 | 1015.5 |
| 20260506210604 | 66 | 264 | 6.1 | 10.4 | 0.00 | 0.00 | 0.00 | 67 | 1015.6 |
| 20260506205602 | 66 | 341 | 2.6 | 10.4 | 0.00 | 0.00 | 0.00 | 69 | 1015.6 |
| 20260506205102 | 66 | 326 | 5.2 | 10.4 | 0.00 | 0.00 | 0.00 | 68 | 1015.5 |
| 20260506204601 | 66 | 244 | 4.3 | 11.3 | 0.00 | 0.00 | 0.00 | 69 | 1015.6 |
| 20260506203601 | 66 | 289 | 3.5 | 12.2 | 0.00 | 0.00 | 0.00 | 68 | 1015.7 |
| 20260506203324 | 66 | 292 | 3.5 | 13.0 | 0.00 | 0.00 | 0.00 | 68 | 1015.7 |
| 20260506202602 | 66 | 324 | 5.2 | 13.9 | 0.00 | 0.00 | 0.00 | 69 | 1015.7 |
| 20260506202102 | 66 | 271 | 7.8 | 13.9 | 0.00 | 0.00 | 0.00 | 69 | 1015.6 |
| 20260506201600 | 66 | 301 | 6.1 | 13.9 | 0.00 | 0.00 | 0.00 | 68 | 1015.7 |
| 20260506201100 | 66 | 34 | 4.3 | 13.9 | 0.00 | 0.00 | 0.00 | 68 | 1015.7 |
| 20260506200602 | 66 | 275 | 7.0 | 13.9 | 0.00 | 0.00 | 0.00 | 67 | 1015.7 |
| 20260506200328 | 66 | 340 | 4.3 | 13.0 | 0.00 | 0.00 | 0.00 | 70 | 1015.8 |
| 20260506195820 | 66 | 279 | 5.2 | 10.4 | 0.00 | 0.00 | 0.00 | 69 | 1015.7 |
| 20260506195059 | 66 | 231 | 6.1 | 11.3 | 0.00 | 0.00 | 0.00 | 69 | 1015.9 |
| 20260506194601 | 66 | 293 | 4.3 | 12.2 | 0.00 | 0.00 | 0.00 | 68 | 1015.8 |
| 20260506194101 | 66 | 346 | 8.7 | 12.2 | 0.00 | 0.00 | 0.00 | 69 | 1015.9 |
| 20260506193559 | 66 | 338 | 2.6 | 11.3 | 0.00 | 0.00 | 0.00 | 67 | 1016.0 |
| 20260506193059 | 66 | 232 | 2.6 | 11.3 | 0.00 | 0.00 | 0.00 | 66 | 1016.1 |
| 20260506192602 | 66 | 299 | 6.1 | 11.3 | 0.00 | 0.00 | 0.00 | 66 | 1016.1 |
| 20260506192319 | 66 | 292 | 3.5 | 10.4 | 0.00 | 0.00 | 0.00 | 66 | 1016.1 |
| 20260506191600 | 66 | 225 | 3.5 | 10.4 | 0.00 | 0.00 | 0.00 | 66 | 1016.2 |
| 20260506190600 | 66 | 241 | 3.5 | 12.2 | 0.00 | 0.00 | 0.00 | 66 | 1016.1 |
| 20260506190100 | 66 | 265 | 4.3 | 12.2 | 0.00 | 0.00 | 0.00 | 67 | 1016.2 |
| 20260506185558 | 67 | 331 | 4.3 | 11.3 | 0.00 | 0.00 | 0.00 | 67 | 1016.2 |
| 20260506185059 | 67 | 271 | 5.2 | 8.7 | 0.00 | 0.00 | 0.00 | 67 | 1016.2 |
| 20260506184600 | 67 | 329 | 7.8 | 8.7 | 0.00 | 0.00 | 0.00 | 66 | 1016.3 |
| 20260506184059 | 67 | 296 | 3.5 | 11.3 | 0.00 | 0.00 | 0.00 | 66 | 1016.3 |
| 20260506183558 | 67 | 289 | 2.6 | 11.3 | 0.00 | 0.00 | 0.00 | 66 | 1016.3 |
| 20260506183058 | 67 | 350 | 3.5 | 8.7 | 0.00 | 0.00 | 0.00 | 65 | 1016.3 |
| 20260506182559 | 67 | 280 | 4.3 | 8.7 | 0.00 | 0.00 | 0.00 | 66 | 1016.4 |
| 20260506181558 | 66 | 321 | 5.2 | 7.0 | 0.00 | 0.00 | 0.00 | 64 | 1016.5 |
| 20260506181057 | 66 | 291 | 2.6 | 7.8 | 0.00 | 0.00 | 0.00 | 65 | 1016.6 |
| 20260506180600 | 66 | 219 | 6.1 | 7.8 | 0.00 | 0.00 | 0.00 | 67 | 1016.6 |
| 20260506180058 | 66 | 325 | 0.9 | 7.8 | 0.00 | 0.00 | 0.00 | 67 | 1016.5 |
| 20260506175558 | 66 | 299 | 0.9 | 7.0 | 0.00 | 0.00 | 0.00 | 65 | 1016.6 |
| 20260506175057 | 66 | 347 | 3.5 | 7.0 | 0.00 | 0.00 | 0.00 | 65 | 1016.7 |
| 20260506174557 | 66 | 285 | 4.3 | 10.4 | 0.00 | 0.00 | 0.00 | 67 | 1016.7 |
| 20260506174059 | 65 | 314 | 2.6 | 10.4 | 0.00 | 0.00 | 0.00 | 67 | 1016.7 |
| 20260506173557 | 65 | 349 | 5.2 | 7.0 | 0.00 | 0.00 | 0.00 | 68 | 1016.7 |
| 20260506173057 | 65 | 246 | 4.3 | 7.0 | 0.00 | 0.00 | 0.00 | 66 | 1016.7 |
| 20260506172558 | 65 | 352 | 3.5 | 7.8 | 0.00 | 0.00 | 0.00 | 68 | 1016.8 |
| 20260506172058 | 65 | 259 | 2.6 | 10.4 | 0.00 | 0.00 | 0.00 | 68 | 1017.0 |
| 20260506171558 | 65 | 313 | 5.2 | 10.4 | 0.00 | 0.00 | 0.00 | 68 | 1016.9 |
| 20260506171058 | 65 | 248 | 3.5 | 7.0 | 0.00 | 0.00 | 0.00 | 66 | 1016.9 |
| 20260506170817 | 65 | 264 | 2.6 | 7.0 | 0.00 | 0.00 | 0.00 | 66 | 1017.0 |
| 20260506170058 | 65 | 267 | 4.3 | 7.0 | 0.00 | 0.00 | 0.00 | 66 | 1016.8 |
| 20260506165557 | 65 | 299 | 2.6 | 7.0 | 0.00 | 0.00 | 0.00 | 66 | 1016.8 |
| 20260506165055 | 65 | 344 | 2.6 | 7.0 | 0.00 | 0.00 | 0.00 | 66 | 1016.8 |
| 20260506164556 | 65 | 259 | 0.9 | 5.2 | 0.00 | 0.00 | 0.00 | 64 | 1016.7 |
| 20260506164318 | 64 | 256 | 1.7 | 5.2 | 0.00 | 0.00 | 0.00 | 66 | 1016.8 |
| 20260506163557 | 64 | 303 | 3.5 | 5.2 | 0.00 | 0.00 | 0.00 | 67 | 1016.8 |
| 20260506163056 | 63 | 247 | 1.7 | 5.2 | 0.00 | 0.00 | 0.00 | 64 | 1016.8 |
| 20260506162555 | 62 | 286 | 2.6 | 2.6 | 0.00 | 0.00 | 0.00 | 68 | 1016.9 |
| 20260506162056 | 62 | 284 | 0.9 | 2.6 | 0.00 | 0.00 | 0.00 | 69 | 1016.8 |
| 20260506161556 | 62 | 11 | 1.7 | 8.7 | 0.00 | 0.00 | 0.00 | 69 | 1016.9 |
| 20260506161055 | 62 | 42 | 2.6 | 8.7 | 0.00 | 0.00 | 0.00 | 70 | 1016.9 |
| 20260506160556 | 62 | 298 | 0.9 | 5.2 | 0.00 | 0.00 | 0.00 | 70 | 1016.8 |
| 20260506160325 | 62 | 42 | 3.5 | 5.2 | 0.00 | 0.00 | 0.00 | 71 | 1016.8 |
| 20260506155558 | 61 | 29 | 2.6 | 5.2 | 0.00 | 0.00 | 0.00 | 71 | 1016.8 |
| 20260506155054 | 61 | 354 | 1.7 | 6.1 | 0.00 | 0.00 | 0.00 | 71 | 1016.8 |
| 20260506154555 | 61 | 309 | 2.6 | 6.1 | 0.00 | 0.00 | 0.00 | 72 | 1016.8 |
| 20260506154055 | 60 | 352 | 0.9 | 7.0 | 0.00 | 0.00 | 0.00 | 72 | 1016.8 |
| 20260506153555 | 60 | 348 | 1.7 | 7.0 | 0.00 | 0.00 | 0.00 | 73 | 1016.9 |
| 20260506153055 | 60 | 289 | 0.0 | 6.1 | 0.00 | 0.00 | 0.00 | 71 | 1016.9 |
| 20260506152555 | 59 | 343 | 5.2 | 6.1 | 0.00 | 0.00 | 0.00 | 71 | 1016.9 |
| 20260506152056 | 59 | 349 | 0.9 | 5.2 | 0.00 | 0.00 | 0.00 | 73 | 1016.9 |
| 20260506151555 | 58 | 294 | 0.9 | 5.2 | 0.00 | 0.00 | 0.00 | 73 | 1017.0 |
| 20260506151053 | 58 | 1 | 1.7 | 5.2 | 0.00 | 0.00 | 0.00 | 74 | 1016.9 |
| 20260506150553 | 58 | 12 | 1.7 | 4.3 | 0.00 | 0.00 | 0.00 | 75 | 1017.0 |
| 20260506150056 | 57 | 359 | 1.7 | 4.3 | 0.00 | 0.00 | 0.00 | 76 | 1016.9 |
| 20260506145556 | 57 | 10 | 0.9 | 4.3 | 0.00 | 0.00 | 0.00 | 76 | 1016.9 |
| 20260506145054 | 56 | 357 | 1.7 | 4.3 | 0.00 | 0.00 | 0.00 | 77 | 1016.9 |
| 20260506144554 | 56 | 12 | 1.7 | 4.3 | 0.00 | 0.00 | 0.00 | 78 | 1016.8 |
| 20260506144053 | 56 | 16 | 1.7 | 4.3 | 0.00 | 0.00 | 0.00 | 78 | 1016.8 |
| 20260506143555 | 56 | 2 | 0.9 | 4.3 | 0.00 | 0.00 | 0.00 | 79 | 1016.8 |
| 20260506143055 | 55 | 16 | 1.7 | 4.3 | 0.00 | 0.00 | 0.00 | 80 | 1016.8 |
| 20260506142553 | 55 | 18 | 1.7 | 4.3 | 0.00 | 0.00 | 0.00 | 81 | 1016.8 |
| 20260506142054 | 55 | 7 | 0.9 | 4.3 | 0.00 | 0.00 | 0.00 | 82 | 1016.8 |
| 20260506141554 | 55 | 330 | 2.6 | 4.3 | 0.00 | 0.00 | 0.00 | 82 | 1016.8 |
| 20260506141053 | 54 | 16 | 2.6 | 4.3 | 0.00 | 0.00 | 0.00 | 83 | 1016.7 |
| 20260506140554 | 54 | 22 | 2.6 | 4.3 | 0.00 | 0.00 | 0.00 | 83 | 1016.7 |
| 20260506140052 | 54 | 4 | 0.9 | 2.6 | 0.00 | 0.00 | 0.00 | 84 | 1016.7 |
| 20260506135554 | 54 | 267 | 0.0 | 4.3 | 0.00 | 0.00 | 0.00 | 84 | 1016.7 |
| 20260506135053 | 54 | 289 | 0.9 | 4.3 | 0.00 | 0.00 | 0.00 | 84 | 1016.6 |
| 20260506134552 | 54 | 340 | 2.6 | 4.3 | 0.00 | 0.00 | 0.00 | 85 | 1016.6 |
| 20260506134052 | 54 | 271 | 0.0 | 4.3 | 0.00 | 0.00 | 0.00 | 85 | 1016.6 |
| 20260506133826 | 54 | 318 | 2.6 | 5.2 | 0.00 | 0.00 | 0.00 | 85 | 1016.5 |
| 20260506133053 | 54 | 10 | 1.7 | 5.2 | 0.00 | 0.00 | 0.00 | 85 | 1016.5 |
| 20260506132811 | 54 | 327 | 1.7 | 4.3 | 0.00 | 0.00 | 0.00 | 84 | 1016.3 |
| 20260506132051 | 54 | 226 | 0.0 | 2.6 | 0.00 | 0.00 | 0.00 | 84 | 1016.4 |
| 20260506131552 | 54 | 307 | 1.7 | 2.6 | 0.00 | 0.00 | 0.00 | 84 | 1016.3 |
| 20260506131052 | 54 | 278 | 0.0 | 2.6 | 0.00 | 0.00 | 0.00 | 84 | 1016.3 |
| 20260506130551 | 54 | 286 | 0.9 | 2.6 | 0.00 | 0.00 | 0.00 | 84 | 1016.3 |
| 20260506130319 | 55 | 356 | 0.9 | 7.0 | 0.00 | 0.00 | 0.00 | 84 | 1016.1 |
| 20260506125553 | 55 | 327 | 1.7 | 7.0 | 0.00 | 0.00 | 0.00 | 84 | 1016.2 |
| 20260506125052 | 55 | 280 | 0.9 | 0.9 | 0.00 | 0.00 | 0.00 | 83 | 1016.1 |
| 20260506124550 | 55 | 260 | 0.0 | 1.7 | 0.00 | 0.00 | 0.00 | 83 | 1016.0 |
| 20260506124050 | 55 | 263 | 0.0 | 2.6 | 0.00 | 0.00 | 0.00 | 82 | 1016.1 |
| 20260506123553 | 55 | 230 | 1.7 | 2.6 | 0.00 | 0.00 | 0.00 | 82 | 1016.1 |
| 20260506123052 | 55 | 217 | 0.9 | 2.6 | 0.00 | 0.00 | 0.00 | 82 | 1016.0 |
| 20260506122551 | 55 | 304 | 0.0 | 5.2 | 0.00 | 0.00 | 0.00 | 82 | 1016.0 |
| 20260506122050 | 55 | 339 | 0.9 | 6.1 | 0.00 | 0.00 | 0.00 | 83 | 1016.0 |
| 20260506121550 | 55 | 358 | 2.6 | 6.1 | 0.00 | 0.00 | 0.00 | 82 | 1016.0 |
| 20260506121052 | 56 | 267 | 0.9 | 1.7 | 0.00 | 0.00 | 0.00 | 81 | 1015.9 |
| 20260506120811 | 56 | 236 | 0.9 | 4.3 | 0.00 | 0.00 | 0.00 | 81 | 1015.8 |
| 20260506120050 | 56 | 304 | 0.9 | 4.3 | 0.00 | 0.00 | 0.00 | 81 | 1015.9 |
| 20260506115550 | 56 | 33 | 3.5 | 4.3 | 0.00 | 0.00 | 0.00 | 81 | 1015.9 |
| 20260506115051 | 56 | 268 | 0.0 | 1.7 | 0.00 | 0.00 | 0.00 | 79 | 1015.9 |
| 20260506114549 | 56 | 206 | 0.9 | 1.7 | 0.00 | 0.00 | 0.00 | 80 | 1015.8 |
| 20260506114049 | 56 | 219 | 1.7 | 5.2 | 0.00 | 0.00 | 0.00 | 80 | 1015.8 |
| 20260506113550 | 56 | 348 | 2.6 | 5.2 | 0.00 | 0.00 | 0.00 | 81 | 1015.9 |
| 20260506113050 | 56 | 16 | 1.7 | 4.3 | 0.00 | 0.00 | 0.00 | 81 | 1016.0 |
| 20260506112550 | 56 | 230 | 0.9 | 1.7 | 0.00 | 0.00 | 0.00 | 78 | 1015.9 |
| 20260506112050 | 56 | 252 | 0.0 | 1.7 | 0.00 | 0.00 | 0.00 | 78 | 1015.9 |
| 20260506111549 | 56 | 186 | 1.7 | 1.7 | 0.00 | 0.00 | 0.00 | 78 | 1015.9 |
| 20260506111050 | 56 | 275 | 0.0 | 2.6 | 0.00 | 0.00 | 0.00 | 80 | 1015.9 |
| 20260506110550 | 56 | 289 | 0.0 | 4.3 | 0.00 | 0.00 | 0.00 | 81 | 1015.9 |
| 20260506105548 | 56 | 257 | 0.0 | 2.6 | 0.00 | 0.00 | 0.00 | 81 | 1015.9 |
| 20260506105051 | 56 | 324 | 2.6 | 2.6 | 0.00 | 0.00 | 0.00 | 81 | 1015.9 |
| 20260506104549 | 56 | 265 | 0.0 | 2.6 | 0.00 | 0.00 | 0.00 | 81 | 1015.8 |
| 20260506104308 | 56 | 268 | 0.0 | 2.6 | 0.00 | 0.00 | 0.00 | 81 | 1015.9 |
| 20260506103547 | 56 | 290 | 0.0 | 2.6 | 0.00 | 0.00 | 0.00 | 80 | 1015.7 |
| 20260506103312 | 56 | 275 | 1.7 | 1.7 | 0.00 | 0.00 | 0.00 | 79 | 1015.7 |
| 20260506102550 | 56 | 196 | 1.7 | 5.2 | 0.00 | 0.00 | 0.00 | 78 | 1015.7 |
| 20260506102047 | 56 | 267 | 0.0 | 5.2 | 0.00 | 0.00 | 0.00 | 81 | 1015.8 |
| 20260506101547 | 56 | 25 | 2.6 | 4.3 | 0.00 | 0.00 | 0.00 | 81 | 1015.8 |
| 20260506101048 | 56 | 4 | 1.7 | 1.7 | 0.00 | 0.00 | 0.00 | 81 | 1015.7 |
| 20260506100547 | 57 | 261 | 0.0 | 0.0 | 0.00 | 0.00 | 0.00 | 79 | 1015.7 |
| 20260506095948 | 56 | 244 | 0.9 | 1.7 | 0.00 | 0.12 | 0.00 | 80 | 1015.6 |
| 20260506095448 | 56 | 300 | 0.0 | 1.7 | 0.00 | 0.12 | 0.00 | 80 | 1015.6 |
| 20260506094950 | 56 | 229 | 0.0 | 2.6 | 0.00 | 0.12 | 0.00 | 78 | 1015.6 |
| 20260506094713 | 56 | 154 | 1.7 | 4.3 | 0.00 | 0.12 | 0.00 | 78 | 1015.6 |
| 20260506094207 | 56 | 337 | 0.0 | 4.3 | 0.00 | 0.12 | 0.00 | 81 | 1015.5 |
| 20260506092949 | 56 | 265 | 0.0 | 4.3 | 0.00 | 0.12 | 0.00 | 80 | 1015.5 |
| 20260506092449 | 56 | 316 | 0.9 | 4.3 | 0.00 | 0.12 | 0.00 | 81 | 1015.6 |
| 20260506091947 | 56 | 21 | 1.7 | 2.6 | 0.00 | 0.12 | 0.00 | 81 | 1015.6 |
| 20260506091447 | 56 | 337 | 0.9 | 2.6 | 0.00 | 0.12 | 0.00 | 81 | 1015.6 |
| 20260506090948 | 56 | 307 | 1.7 | 1.7 | 0.00 | 0.12 | 0.00 | 81 | 1015.7 |
| 20260506090449 | 56 | 268 | 0.0 | 2.6 | 0.00 | 0.12 | 0.00 | 81 | 1015.8 |
| 20260506085947 | 56 | 353 | 0.9 | 2.6 | 0.00 | 0.12 | 0.00 | 81 | 1015.7 |
| 20260506085448 | 56 | 253 | 0.0 | 0.0 | 0.00 | 0.12 | 0.00 | 79 | 1015.9 |
| 20260506084948 | 56 | 249 | 0.0 | 0.0 | 0.00 | 0.12 | 0.00 | 80 | 1016.0 |
| 20260506084449 | 56 | 272 | 0.0 | 0.9 | 0.00 | 0.12 | 0.00 | 80 | 1016.1 |
| 20260506083947 | 57 | 273 | 0.0 | 1.7 | 0.00 | 0.12 | 0.00 | 78 | 1016.0 |
| 20260506083445 | 56 | 250 | 0.0 | 1.7 | 0.00 | 0.12 | 0.00 | 77 | 1016.1 |
| 20260506082947 | 56 | 243 | 0.9 | 0.9 | 0.00 | 0.12 | 0.00 | 78 | 1016.1 |
| 20260506082448 | 56 | 242 | 0.9 | 0.9 | 0.00 | 0.12 | 0.00 | 78 | 1016.2 |
| 20260506081946 | 57 | 272 | 0.0 | 0.0 | 0.00 | 0.12 | 0.00 | 78 | 1016.2 |
| 20260506081447 | 57 | 273 | 0.0 | 0.9 | 0.00 | 0.12 | 0.00 | 78 | 1016.2 |
| 20260506080949 | 57 | 282 | 0.0 | 0.9 | 0.00 | 0.12 | 0.00 | 78 | 1016.3 |
| 20260506080447 | 57 | 281 | 0.9 | 0.9 | 0.00 | 0.12 | 0.00 | 78 | 1016.3 |
| 20260506073445 | 58 | 266 | 0.0 | 1.7 | 0.00 | 0.12 | 0.00 | 77 | 1016.4 |
| 20260506072944 | 58 | 276 | 0.9 | 2.6 | 0.00 | 0.12 | 0.00 | 76 | 1016.5 |
| 20260506072447 | 58 | 330 | 2.6 | 2.6 | 0.00 | 0.12 | 0.00 | 76 | 1016.5 |
| 20260506071945 | 58 | 282 | 0.0 | 1.7 | 0.00 | 0.12 | 0.00 | 76 | 1016.5 |
| 20260506071446 | 58 | 303 | 0.0 | 1.7 | 0.00 | 0.12 | 0.00 | 75 | 1016.4 |
| 20260506070944 | 58 | 265 | 0.0 | 0.9 | 0.00 | 0.12 | 0.00 | 75 | 1016.5 |
| 20260506070708 | 58 | 287 | 0.0 | 2.6 | 0.00 | 0.12 | 0.00 | 75 | 1016.4 |
| 20260506062446 | 59 | 270 | 0.0 | 0.0 | 0.00 | 0.12 | 0.20 | 74 | 1016.1 |
| 20260506061945 | 59 | 270 | 0.0 | 0.0 | 0.00 | 0.12 | 0.20 | 73 | 1016.1 |
| 20260506061443 | 59 | 271 | 0.0 | 0.0 | 0.00 | 0.12 | 0.20 | 73 | 1016.1 |
| 20260506060943 | 59 | 263 | 0.0 | 1.7 | 0.00 | 0.12 | 0.20 | 73 | 1016.1 |
| 20260506060445 | 59 | 263 | 0.0 | 1.7 | 0.00 | 0.12 | 0.20 | 73 | 1016.1 |
| 20260506050943 | 59 | 265 | 0.9 | 4.3 | 0.00 | 0.12 | 0.20 | 72 | 1016.0 |
| 20260506050444 | 59 | 263 | 1.7 | 4.3 | 0.00 | 0.12 | 0.20 | 73 | 1016.0 |
| 20260506044441 | 59 | 248 | 0.0 | 2.6 | 0.00 | 0.12 | 0.20 | 73 | 1015.8 |
| 20260506043943 | 59 | 254 | 0.0 | 4.3 | 0.00 | 0.12 | 0.20 | 72 | 1015.8 |
| 20260506043445 | 59 | 268 | 1.7 | 4.3 | 0.00 | 0.12 | 0.20 | 73 | 1015.8 |
| 20260506042941 | 59 | 286 | 2.6 | 4.3 | 0.00 | 0.12 | 0.20 | 72 | 1015.8 |
| 20260506042709 | 59 | 286 | 3.5 | 6.1 | 0.00 | 0.12 | 0.20 | 72 | 1015.8 |
| 20260506041943 | 59 | 282 | 0.9 | 6.1 | 0.00 | 0.12 | 0.20 | 73 | 1015.6 |
| 20260506041442 | 59 | 309 | 3.5 | 5.2 | 0.00 | 0.12 | 0.20 | 72 | 1015.5 |
| 20260506040941 | 59 | 268 | 1.7 | 5.2 | 0.00 | 0.12 | 0.20 | 72 | 1015.5 |
| 20260506040441 | 59 | 262 | 1.7 | 5.2 | 0.00 | 0.12 | 0.20 | 72 | 1015.4 |
| 20260506035942 | 59 | 315 | 4.3 | 5.2 | 0.00 | 0.12 | 0.20 | 72 | 1015.3 |
| 20260506035441 | 60 | 283 | 0.0 | 5.2 | 0.00 | 0.12 | 0.20 | 72 | 1015.3 |
| 20260506034941 | 60 | 320 | 3.5 | 5.2 | 0.00 | 0.12 | 0.20 | 72 | 1015.2 |
| 20260506034703 | 60 | 249 | 4.3 | 7.0 | 0.00 | 0.12 | 0.20 | 71 | 1015.1 |
| 20260506033942 | 60 | 224 | 2.6 | 7.0 | 0.00 | 0.12 | 0.20 | 70 | 1015.1 |
| 20260506033443 | 60 | 275 | 1.7 | 7.0 | 0.00 | 0.12 | 0.20 | 70 | 1015.0 |
| 20260506032941 | 60 | 290 | 2.6 | 7.8 | 0.00 | 0.12 | 0.20 | 70 | 1015.0 |
| 20260506032440 | 60 | 352 | 4.3 | 7.8 | 0.00 | 0.12 | 0.20 | 71 | 1014.8 |
| 20260506031942 | 59 | 332 | 5.2 | 7.0 | 0.00 | 0.12 | 0.20 | 71 | 1014.8 |
| 20260506031441 | 59 | 265 | 1.7 | 7.8 | 0.00 | 0.12 | 0.20 | 70 | 1014.8 |
| 20260506030938 | 59 | 342 | 6.1 | 7.8 | 0.00 | 0.12 | 0.20 | 70 | 1014.7 |
| 20260506030440 | 59 | 257 | 2.6 | 7.0 | 0.00 | 0.12 | 0.20 | 70 | 1014.6 |
| 20260506025941 | 60 | 335 | 2.6 | 8.7 | 0.00 | 0.12 | 0.20 | 70 | 1014.6 |
| 20260506025439 | 60 | 262 | 1.7 | 8.7 | 0.00 | 0.12 | 0.20 | 70 | 1014.5 |
| 20260506024938 | 60 | 311 | 3.5 | 7.8 | 0.00 | 0.12 | 0.20 | 71 | 1014.4 |
| 20260506024441 | 60 | 275 | 2.6 | 8.7 | 0.00 | 0.12 | 0.20 | 71 | 1014.4 |
| 20260506023939 | 60 | 306 | 6.1 | 8.7 | 0.00 | 0.12 | 0.20 | 71 | 1014.3 |
| 20260506023440 | 60 | 278 | 3.5 | 7.0 | 0.00 | 0.12 | 0.20 | 71 | 1014.3 |
| 20260506022939 | 60 | 257 | 1.7 | 7.8 | 0.00 | 0.12 | 0.20 | 71 | 1014.2 |
| 20260506021940 | 61 | 307 | 5.2 | 10.4 | 0.00 | 0.12 | 0.20 | 70 | 1014.1 |
| 20260506021441 | 61 | 330 | 2.6 | 10.4 | 0.00 | 0.12 | 0.20 | 69 | 1014.0 |